Wind_Speed
18 22 20 20 18 17 16 14 13 11 11 11 11 10 11 12 10 9 10 10 10 8 7 6 5 4 4 6 6 7 7 8 9 10 11 13 14 17 18 18 12 10 12
17 21 21 20 18 17 15 13 12 11 10 10 11 11 11 11 9 9 9 10 9 7 6 6 4 4 4 5 4 7 7 9 10 11 10 12 15 15 15 13 13 9 12
15 22 22 19 17 15 14 12 11 10 9 9 9 9 10 10 8 8 9 9 8 6 5 5 5 3 3 5 5 7 9 11 11 15 14 9 11 13 12 14 6 10 11
18 23 23 20 17 15 13 11 10 10 9 9 9 9 8 8 8 7 8 7 5 5 5 4 4 4 3 5 8 7 12 13 12 15 16 5 9 9 9 8 7 10 10
19 18 23 19 16 14 12 10 9 8 8 9 8 9 8 7 8 7 7 6 4 4 4 4 4 4 4 6 9 9 14 13 9 7 18 13 2 6 8 9 9 10 10
20 17 22 19 15 13 11 10 9 9 8 8 8 8 8 8 7 7 6 6 6 5 5 4 4 4 6 7 9 9 16 14 11 10 8 6 1 4 5 9 9 9 8
26 13 18 17 15 13 10 10 9 8 7 7 7 7 8 8 7 6 6 7 6 6 6 4 3 4 6 8 10 10 15 14 14 13 6 4 4 3 2 6 8 7 6
18 14 14 16 14 12 10 10 9 8 6 5 5 6 7 7 7 6 5 4 6 6 6 5 5 4 6 8 9 11 13 15 6 5 5 6 3 2 3 5 6 7 7
9 6 16 16 15 13 11 9 9 8 7 6 6 6 6 6 5 4 4 3 3 4 4 5 5 6 7 8 9 9 12 12 5 10 7 5 5 4 5 5 6 7 6
14 4 7 14 14 12 12 10 8 7 7 6 7 7 7 5 2 1 1 3 2 3 4 5 5 6 7 9 11 10 10 11 11 7 5 4 4 4 5 6 6 6 6
11 10 7 8 9 11 9 9 9 9 8 7 6 5 4 4 2 3 3 3 5 3 3 5 6 7 8 10 10 12 12 13 9 7 8 7 5 5 7 6 6 6 6
14 12 11 11 11 11 10 10 11 10 9 6 5 5 7 4 11 7 5 5 7 6 4 5 6 8 8 7 10 12 11 14 8 12 8 8 7 6 7 8 6 6 6
15 16 12 7 14 14 13 12 12 11 9 8 9 8 9 9 7 5 10 9 6 5 3 3 7 10 12 11 10 11 8 12 11 12 10 7 5 8 8 9 8 7 7
18 15 14 13 14 10 14 16 14 13 11 14 15 17 15 13 13 13 6 7 6 9 9 13 12 6 10 9 11 11 12 10 12 10 11 10 7 6 11 11 10 9 7
18 15 16 14 14 13 19 15 13 9 12 13 16 18 16 14 13 15 18 16 10 13 14 16 16 12 16 15 13 15 13 15 14 16 11 8 9 8 11 11 12 13 12
12 13 15 11 14 17 18 18 10 13 14 16 20 10 10 14 18 19 16 19 20 20 21 20 18 18 18 14 16 15 16 15 15 18 19 14 12 12 12 13 14 15 15
14 15 11 9 9 11 16 16 16 9 9 7 11 13 15 16 18 20 17 18 20 15 18 12 15 6 28 31 22 15 11 13 14 13 15 16 16 14 15 13 14 17 19
14 16 13 10 11 11 11 13 10 9 12 9 15 12 13 15 19 19 18 12 16 12 13 14 22 23 23 22 22 17 14 12 14 12 15 16 17 14 14 15 15 17 20
17 14 18 16 13 12 8 9 10 12 11 6 7 13 17 17 18 18 20 12 15 21 17 16 17 19 20 21 20 16 20 15 12 15 17 15 16 16 17 17 20 16 20
18 17 20 17 9 9 8 4 4 7 7 8 14 11 9 13 18 17 22 23 20 22 23 21 19 16 20 22 17 14 15 15 15 16 16 18 17 17 19 15 18 21 22
16 14 12 14 13 11 5 5 7 8 8 9 12 19 13 14 18 21 23 23 22 25 23 21 16 19 25 26 20 17 11 15 19 20 21 22 18 16 18 25 26 24 24
10 11 12 15 13 11 11 3 5 8 5 10 10 13 12 11 13 17 20 22 22 24 23 25 23 20 20 23 18 14 16 20 24 29 26 22 15 15 14 14 22 27 24
11 13 13 10 10 10 6 8 8 7 7 7 6 4 7 13 18 17 18 19 20 21 23 24 23 27 24 23 23 18 9 9 10 15 23 16 13 13 13 14 17 22 24
6 9 10 8 5 11 10 8 9 8 5 6 3 7 12 11 13 16 17 19 19 18 19 20 21 23 25 25 22 20 22 14 5 3 8 8 12 16 14 14 15 17 22
10 9 8 6 6 8 7 8 8 3 4 4 9 9 11 14 9 12 16 19 17 16 17 17 18 20 20 19 20 19 21 18 15 13 5 4 8 6 9 13 11 13 16
11 9 9 12 12 8 7 5 4 4 7 4 7 9 9 11 16 17 13 13 14 16 14 13 11 13 15 16 17 18 21 19 13 17 14 12 6 8 10 10 16 16 17
Wind_Direction
140 146 141 136 131 131 133 130 128 120 111 112 113 112 116 123 120 116 122 126 125 123 125 120 118 110 92 110 91 112 115 118 118 118 118 108 102 106 100 89 76 101 103
149 153 148 138 135 135 135 133 133 127 119 118 121 120 125 125 119 118 126 134 117 113 119 115 119 113 106 109 97 118 109 106 103 106 108 104 111 114 108 116 149 95 105
146 156 152 145 137 134 134 134 135 133 125 123 123 122 129 127 124 127 131 132 120 111 112 107 115 114 115 125 116 124 108 97 104 98 88 61 112 119 113 125 140 104 104
145 152 156 150 144 140 136 134 139 137 135 136 135 133 133 126 128 136 133 133 117 112 111 109 113 118 137 140 135 127 110 115 115 118 113 80 90 120 127 125 126 108 105
129 144 156 152 148 142 137 133 136 138 141 140 139 137 138 136 137 141 138 136 126 126 122 120 118 127 143 149 148 133 122 117 102 92 130 134 39 95 111 114 117 118 111
138 164 156 155 151 144 138 137 141 143 145 144 145 146 145 139 136 140 143 146 149 148 141 142 117 124 150 157 159 140 132 125 109 96 98 148 247 69 109 121 121 124 129
159 155 157 156 151 148 147 146 149 148 149 148 151 149 147 139 135 139 146 151 151 166 147 152 124 129 154 163 166 149 142 140 126 120 141 162 233 241 122 138 140 150 136
169 171 172 160 157 158 159 157 156 151 149 152 159 159 153 151 148 152 154 156 164 172 162 170 154 156 162 164 166 156 152 138 150 170 167 200 266 245 203 164 150 148 147
173 152 172 172 169 168 168 169 163 159 160 165 174 172 169 159 169 158 153 171 178 193 183 179 178 175 173 175 169 168 154 169 144 133 196 215 287 296 218 169 157 158 155
142 149 186 183 182 178 176 177 173 175 181 186 193 190 188 187 117 168 200 178 189 205 207 196 194 200 181 189 180 179 166 173 152 141 275 149 244 311 244 170 167 169 164
136 161 185 196 206 184 186 189 190 195 201 204 215 211 204 172 274 206 194 310 298 255 237 218 213 208 202 199 203 189 178 170 164 208 217 180 230 287 248 202 176 183 181
177 191 190 205 201 191 189 198 210 215 224 226 241 236 188 201 212 247 264 285 296 268 253 246 239 226 218 217 218 218 191 166 165 247 198 199 233 264 245 213 193 186 193
179 191 202 191 200 211 201 204 209 210 206 218 243 250 217 227 211 238 244 250 264 248 284 269 290 256 232 211 237 232 206 186 163 209 244 221 198 250 246 222 207 198 196
178 201 207 215 225 218 223 223 213 213 214 219 222 235 233 226 217 206 222 247 267 263 227 220 229 234 239 248 231 235 218 202 185 203 240 264 223 252 248 225 211 210 207
176 200 211 217 230 206 223 243 181 188 215 227 232 241 242 242 228 238 220 231 214 248 260 253 240 220 276 251 240 223 235 213 194 190 226 244 223 242 248 238 226 224 221
175 196 192 207 224 216 222 235 237 228 240 273 233 235 263 268 258 252 245 255 263 263 278 244 250 247 253 235 253 234 234 233 219 218 208 235 240 240 249 250 245 236 230
182 182 201 203 228 233 218 226 221 206 253 256 262 237 260 270 275 264 265 264 267 276 263 240 247 284 252 237 234 235 239 249 238 239 226 221 231 239 247 253 254 243 235
186 189 201 192 209 227 217 224 211 193 187 222 237 268 270 275 280 276 268 261 276 281 256 263 238 245 231 249 224 229 236 230 251 250 251 248 219 238 252 253 256 247 239
186 193 209 203 195 221 213 213 195 218 192 213 244 249 264 271 278 273 272 258 267 276 274 260 250 219 239 235 243 243 223 249 238 248 267 261 239 223 232 239 252 254 240
206 213 225 222 210 202 204 206 235 256 219 229 230 242 293 277 282 273 275 272 255 264 262 261 249 230 229 239 242 252 256 264 258 250 253 274 256 234 233 234 238 243 240
195 208 229 228 225 211 192 245 226 243 271 277 272 257 322 286 271 273 277 270 260 258 263 261 259 246 234 225 219 230 226 251 255 254 253 264 269 246 232 233 245 243 246
192 221 210 222 234 214 269 171 245 248 258 295 286 281 313 305 300 300 295 287 275 267 257 256 251 251 234 238 246 245 250 252 249 244 248 253 264 260 251 242 241 244 249
209 206 217 239 227 220 204 211 277 284 297 305 310 341 275 289 305 315 310 289 286 278 269 257 250 244 244 244 243 242 244 249 328 232 231 242 254 247 247 251 254 250 238
196 188 229 264 238 197 205 240 267 274 298 327 342 278 294 333 296 304 327 320 303 293 277 269 252 248 247 247 240 230 225 259 301 201 214 250 247 248 252 254 253 242 241
173 173 218 260 149 173 169 167 221 236 335 292 288 323 360 331 310 312 310 314 314 303 287 273 262 249 248 245 234 229 221 240 261 248 264 268 261 267 262 249 251 262 257
173 172 188 188 147 159 174 188 225 253 265 288 338 359 307 345 327 330 329 329 332 329 299 273 263 251 247 239 231 231 232 236 237 236 243 240 249 253 257 269 261 250 277
Height
1524 1527 1531 1534 1536 1539 1541 1543 1545 1547 1549 1550 1552 1554 1555 1557 1558 1559 1560 1562 1564 1565 1566 1567 1569 1570 1571 1571 1572 1573 1574 1574 1574 1575 1577 1578 1578 1578 1579 1580 1582 1582 1583
1523 1528 1532 1535 1538 1540 1542 1544 1547 1549 1550 1553 1554 1555 1557 1558 1560 1562 1562 1564 1564 1566 1567 1568 1570 1570 1571 1573 1573 1574 1575 1576 1576 1577 1578 1579 1580 1580 1581 1582 1584 1584 1584
1525 1530 1534 1537 1540 1542 1544 1546 1548 1550 1552 1554 1556 1557 1558 1560 1562 1564 1565 1566 1566 1568 1568 1569 1570 1571 1573 1573 1574 1575 1576 1577 1577 1578 1579 1580 1581 1582 1583 1584 1586 1586 1586
1526 1531 1535 1538 1541 1543 1546 1548 1550 1551 1553 1555 1556 1558 1560 1561 1563 1565 1566 1568 1568 1569 1570 1570 1571 1572 1572 1574 1574 1576 1577 1578 1579 1579 1580 1583 1584 1584 1585 1586 1587 1587 1588
1531 1534 1536 1539 1543 1545 1547 1550 1552 1553 1554 1556 1558 1559 1561 1562 1563 1565 1566 1567 1568 1570 1570 1571 1571 1571 1572 1573 1574 1576 1578 1579 1580 1581 1581 1585 1586 1586 1586 1587 1588 1589 1590
1535 1534 1537 1540 1544 1547 1549 1551 1553 1554 1555 1557 1559 1560 1562 1563 1564 1565 1566 1567 1568 1569 1570 1571 1570 1571 1571 1573 1574 1576 1578 1580 1581 1583 1585 1586 1587 1588 1588 1588 1589 1590 1591
1533 1537 1540 1543 1545 1548 1550 1551 1553 1554 1556 1558 1559 1560 1561 1563 1564 1565 1566 1567 1568 1569 1570 1570 1571 1571 1571 1572 1573 1575 1578 1580 1582 1585 1587 1588 1588 1588 1589 1589 1590 1591 1591
1534 1537 1542 1544 1547 1549 1551 1552 1554 1556 1557 1559 1560 1561 1562 1563 1564 1566 1567 1568 1569 1569 1570 1571 1570 1571 1571 1572 1573 1575 1578 1580 1582 1583 1586 1588 1588 1588 1589 1590 1591 1591 1592
1533 1539 1541 1544 1547 1548 1551 1553 1555 1557 1558 1560 1561 1563 1563 1564 1566 1566 1567 1567 1569 1570 1570 1570 1570 1571 1572 1572 1573 1576 1578 1580 1581 1583 1585 1586 1589 1590 1590 1590 1591 1591 1592
1536 1537 1540 1544 1546 1549 1551 1555 1557 1558 1559 1561 1563 1563 1564 1565 1566 1567 1567 1567 1568 1569 1570 1571 1571 1572 1571 1572 1572 1575 1578 1579 1581 1583 1583 1585 1587 1589 1591 1590 1591 1591 1592
1539 1540 1541 1543 1546 1549 1552 1556 1558 1558 1559 1561 1563 1565 1566 1566 1566 1566 1566 1567 1568 1569 1570 1571 1571 1572 1572 1572 1572 1574 1576 1579 1582 1582 1583 1583 1586 1588 1590 1591 1591 1592 1592
1540 1541 1544 1546 1548 1551 1555 1553 1556 1558 1559 1561 1562 1565 1565 1565 1565 1566 1566 1567 1567 1568 1569 1570 1571 1571 1572 1572 1573 1574 1575 1578 1581 1581 1580 1581 1584 1587 1589 1590 1590 1591 1592
1539 1540 1543 1545 1548 1551 1553 1552 1553 1555 1556 1558 1562 1564 1565 1564 1565 1566 1565 1567 1567 1567 1568 1570 1571 1571 1571 1573 1573 1574 1575 1577 1579 1581 1579 1580 1581 1585 1588 1589 1589 1590 1591
1537 1541 1543 1545 1547 1550 1548 1542 1544 1550 1554 1558 1559 1560 1562 1562 1561 1562 1565 1566 1566 1567 1567 1566 1565 1570 1571 1572 1573 1573 1575 1575 1577 1579 1578 1578 1581 1582 1586 1586 1587 1587 1589
1535 1538 1541 1544 1546 1549 1542 1533 1532 1547 1551 1555 1557 1558 1558 1559 1560 1559 1562 1562 1563 1563 1563 1563 1565 1570 1568 1574 1573 1573 1573 1575 1574 1576 1576 1577 1579 1581 1582 1583 1584 1585 1587
1534 1536 1539 1542 1544 1545 1542 1538 1541 1546 1549 1548 1553 1555 1557 1557 1558 1558 1561 1559 1559 1559 1557 1560 1562 1561 1569 1566 1572 1570 1570 1570 1572 1573 1574 1574 1576 1577 1578 1579 1581 1583 1585
1534 1537 1538 1541 1542 1543 1543 1543 1545 1547 1548 1551 1551 1552 1554 1556 1556 1555 1558 1557 1553 1554 1553 1558 1558 1558 1552 1555 1566 1563 1564 1566 1568 1569 1570 1572 1572 1573 1575 1576 1577 1580 1581
1533 1536 1539 1542 1542 1542 1543 1543 1543 1547 1550 1552 1553 1554 1554 1554 1553 1554 1555 1555 1551 1551 1551 1552 1556 1560 1557 1555 1547 1556 1556 1560 1563 1565 1566 1567 1568 1568 1571 1572 1573 1575 1578
1532 1534 1536 1539 1541 1541 1541 1545 1546 1547 1547 1551 1551 1549 1549 1549 1549 1550 1552 1553 1552 1547 1547 1547 1549 1554 1552 1552 1553 1553 1550 1555 1560 1562 1561 1562 1564 1565 1566 1568 1569 1571 1573
1531 1532 1534 1537 1539 1541 1542 1542 1547 1548 1547 1549 1548 1548 1548 1549 1547 1546 1546 1546 1548 1545 1543 1545 1546 1552 1552 1553 1553 1548 1550 1552 1557 1560 1557 1558 1559 1561 1563 1563 1565 1566 1568
1529 1531 1532 1534 1536 1537 1540 1541 1542 1546 1546 1549 1547 1544 1541 1544 1544 1542 1540 1540 1540 1541 1540 1539 1543 1546 1539 1535 1548 1549 1549 1551 1554 1554 1554 1554 1555 1556 1558 1560 1559 1561 1563
1528 1530 1531 1532 1534 1536 1538 1541 1543 1545 1546 1547 1546 1543 1539 1539 1540 1537 1537 1535 1533 1533 1535 1536 1538 1540 1541 1546 1546 1545 1547 1550 1548 1547 1550 1550 1551 1552 1553 1555 1554 1555 1557
1527 1529 1531 1532 1534 1536 1538 1540 1542 1544 1545 1548 1546 1544 1541 1539 1536 1535 1534 1531 1529 1528 1527 1529 1532 1536 1538 1541 1541 1544 1546 1545 1544 1543 1547 1549 1549 1549 1550 1550 1550 1550 1551
1527 1529 1531 1531 1532 1535 1538 1540 1541 1542 1543 1544 1546 1543 1542 1539 1537 1534 1530 1528 1525 1523 1522 1523 1526 1528 1532 1534 1537 1539 1540 1543 1543 1545 1546 1546 1546 1545 1547 1548 1548 1548 1549
1528 1530 1531 1531 1532 1535 1537 1539 1540 1541 1541 1543 1542 1541 1539 1537 1535 1532 1528 1525 1522 1520 1519 1519 1521 1524 1527 1530 1532 1535 1537 1538 1541 1543 1543 1544 1543 1543 1544 1545 1545 1547 1551
1527 1528 1530 1531 1533 1536 1538 1539 1539 1540 1540 1540 1540 1540 1539 1537 1532 1529 1525 1523 1520 1518 1516 1516 1518 1520 1524 1527 1529 1532 1534 1535 1536 1539 1540 1542 1542 1543 1542 1543 1543 1544 1545